Location: Zagreb
(45.8000°N, 16.0000°E)
Time: 14:15:21
(UTC+02:00)

Transit 2A Rocket - Pass Details

Date: 15 August 2022
Orbit: 593 x 907 km, 66.7° (Epoch: 25 September)

Event Time Altitude Azimuth Distance (km) Brightness Sun altitude
Rises 20:16:42 0° 261° (W) 2,928 9.1 -2.8°
Reaches altitude 10° 20:19:49 10° 283° (WNW) 1,981 9.0 -3.3°
Maximum altitude 20:22:34 16° 322° (NW) 1,600 7.8 -3.7°
Drops below altitude 10° 20:25:16 10° 1° (N) 1,942 7.5 -4.2°
Sets 20:28:18 0° 23° (NNE) 2,841 8.0 -4.7°
